Weather reports worldwide

Advertisment
Wittmund, Germany (10126): temperature & dewpoint: 26.06.2020 08:00:00 - 02.07.2020 08:00:00 (CEST)Wittmund, Germany (10126): wind speed & gusts: 26.06.2020 08:00:00 - 02.07.2020 08:00:00 (CEST)Wittmund, Germany (10126): wind direction: 26.06.2020 08:00:00 - 02.07.2020 08:00:00 (CEST)Wittmund, Germany (10126): reduced air pressure: 26.06.2020 08:00:00 - 02.07.2020 08:00:00 (CEST)Wittmund, Germany (10126): visibility: 26.06.2020 08:00:00 - 02.07.2020 08:00:00 (CEST)
Date & Time tt [°C] td [°C] ff [km/h] ff [kn] fx [km/h] fx [kn] dd ppp [hPa] vv [km]
02.07.2020 08:00:00 - - - - - - - - -
02.07.2020 07:00:00 15,0 13,9 5 3 - - SW 1007,3 8
02.07.2020 06:00:00 15,1 14,0 7 4 - - WSW 1006,9 3,7
02.07.2020 05:00:00 15,0 13,8 0 0 - - N 1006,6 2,1
02.07.2020 04:00:00 14,9 13,4 4 2 - - SSW 1006,5 4,5
02.07.2020 03:00:00 15,2 13,9 7 4 - - WNW 1006,5 4,8
02.07.2020 02:00:00 15,7 13,2 11 6 - - WSW 1006,3 4,3
02.07.2020 01:00:00 15,4 12,7 11 6 - - WSW 1006,3 5
02.07.2020 00:00:00 15,8 12,6 14 8 - - SW 1006,0 5
01.07.2020 23:00:00 16,0 12,4 11 6 - - SW 1005,7 6
01.07.2020 22:00:00 16,4 12,7 11 6 - - W 1005,3 6
01.07.2020 21:00:00 16,7 12,8 25 14 - - W 1004,9 6
01.07.2020 20:00:00 16,3 14,2 18 10 - - W 1004,7 7
01.07.2020 19:00:00 17,9 13,2 29 16 - - W 1004,2 15
01.07.2020 18:00:00 20,5 13,3 29 16 - - W 1003,7 25
01.07.2020 17:00:00 21,0 13,6 22 12 - - W 1003,2 25
01.07.2020 16:00:00 22,8 12,6 18 10 - - WSW 1002,8 25
01.07.2020 15:00:00 22,6 11,9 22 12 - - WSW 1003,2 25
01.07.2020 14:00:00 21,9 13,6 29 16 - - SSW 1003,1 25
01.07.2020 13:00:00 20,2 14,3 18 10 - - S 1003,5 25
01.07.2020 12:00:00 19,2 14,1 18 10 - - S 1003,8 25
01.07.2020 11:00:00 18,4 12,8 18 10 - - S 1004,2 20
01.07.2020 10:00:00 18,4 12,8 14 8 - - S 1004,3 30
01.07.2020 09:00:00 15,6 13,5 14 8 - - SSW 1004,8 12
01.07.2020 08:00:00 14,6 13,5 13 7 - - SSW 1004,6 6
01.07.2020 07:00:00 13,5 12,7 7 4 - - SSW 1004,7 4,0
01.07.2020 06:00:00 12,2 11,3 7 4 - - SSW 1004,6 6
01.07.2020 05:00:00 12,5 11,4 7 4 - - SW 1004,9 4,6
01.07.2020 04:00:00 12,7 11,8 11 6 - - SW 1004,8 5
01.07.2020 03:00:00 11,7 10,6 7 4 - - SSW 1005,0 4,8
01.07.2020 02:00:00 12,4 10,7 7 4 - - SW 1005,2 5
01.07.2020 01:00:00 12,9 11,1 11 6 - - SW 1005,2 5
01.07.2020 00:00:00 13,3 11,7 7 4 - - SW 1005,5 4,9
30.06.2020 23:00:00 13,0 11,9 11 6 - - SW 1005,6 3,5
30.06.2020 22:00:00 12,7 11,1 11 6 - - SW 1005,8 2,2
30.06.2020 21:00:00 12,9 9,6 18 10 - - SSW 1005,7 5
30.06.2020 20:00:00 15,3 10,3 18 10 - - WSW 1005,9 10
30.06.2020 19:00:00 15,9 10,5 18 10 - - WSW 1006,1 30
30.06.2020 18:00:00 16,1 10,2 21 11 - - WSW 1006,2 10
30.06.2020 17:00:00 16,0 10,5 26 14 - - W 1006,3 10
30.06.2020 16:00:00 17,1 10,9 25 14 - - WSW 1005,8 30
30.06.2020 15:00:00 15,7 12,2 22 12 - - SW 1006,0 15
30.06.2020 14:00:00 14,7 12,3 22 12 - - SW 1006,0 7
30.06.2020 13:00:00 14,6 12,6 18 10 - - WSW 1005,9 7
30.06.2020 12:00:00 14,8 11,8 24 13 - - WSW 1005,6 10
30.06.2020 11:00:00 14,2 12,3 22 12 - - WSW 1005,5 4,0
30.06.2020 10:00:00 13,9 11,8 22 12 - - SW 1005,3 6
30.06.2020 09:00:00 13,9 11,4 22 12 - - SW 1005,2 6
30.06.2020 08:00:00 13,9 11,4 22 12 - - SW 1005,0 15
30.06.2020 07:00:00 13,2 11,1 25 14 - - SSW 1004,9 15
30.06.2020 06:00:00 12,9 10,8 22 12 - - SW 1004,9 12
30.06.2020 05:00:00 13,2 10,8 25 14 - - SW 1004,8 5
30.06.2020 04:00:00 13,1 10,9 22 12 - - SW 1005,3 3,5
30.06.2020 03:00:00 13,5 10,4 22 12 47 25 SW 1005,6 4,6
30.06.2020 02:00:00 15,0 8,6 25 14 - - SW 1005,8 4,7
30.06.2020 01:00:00 15,1 8,5 22 12 47 25 SW 1006,3 4,2
30.06.2020 00:00:00 15,6 8,1 18 10 - - SW 1007,1 4,5
29.06.2020 23:00:00 16,2 7,5 22 12 - - SW 1007,2 5
29.06.2020 22:00:00 16,3 8,3 22 12 - - SW 1007,4 5
29.06.2020 21:00:00 15,8 9,3 18 10 - - SSW 1007,7 5
29.06.2020 20:00:00 16,3 9,0 25 14 - - WSW 1008,2 30
29.06.2020 19:00:00 16,8 8,6 22 12 47 25 WSW 1008,5 30
29.06.2020 18:00:00 17,4 7,6 18 10 54 29 WSW 1008,5 35
29.06.2020 17:00:00 18,3 7,9 22 12 - - SW 1008,3 35
29.06.2020 16:00:00 19,7 7,1 25 14 50 27 SW 1008,5 35
29.06.2020 15:00:00 18,7 7,5 25 14 47 25 SW 1008,9 35
29.06.2020 14:00:00 19,1 7,4 25 14 - - SW 1008,9 35
29.06.2020 13:00:00 19,1 6,7 25 14 - - SSW 1009,1 35
29.06.2020 12:00:00 19,0 7,6 29 16 - - SW 1009,1 30
29.06.2020 11:00:00 17,8 8,8 25 14 - - SW 1009,3 30
29.06.2020 10:00:00 16,7 8,9 32 18 47 25 SSW 1009,0 30
29.06.2020 09:00:00 15,6 8,7 25 14 - - SSW 1009,2 30
29.06.2020 08:00:00 15,0 8,6 18 10 - - SSW 1009,3 30
29.06.2020 07:00:00 13,4 8,5 14 8 - - SSW 1009,5 30
29.06.2020 06:00:00 11,9 9,2 11 6 - - S 1010,0 30
29.06.2020 05:00:00 11,9 9,1 7 4 - - S 1010,2 5
29.06.2020 04:00:00 12,0 9,4 7 4 - - S 1010,5 6
29.06.2020 03:00:00 12,6 9,3 7 4 - - S 1010,8 6
29.06.2020 02:00:00 12,9 9,5 7 4 - - SSE 1011,2 7
29.06.2020 01:00:00 13,1 8,9 7 4 - - SSE 1011,4 6
29.06.2020 00:00:00 14,3 8,3 7 4 - - S 1011,7 6
28.06.2020 23:00:00 16,5 7,5 7 4 - - N 1011,9 6
28.06.2020 22:00:00 17,3 7,8 7 4 - - SW 1011,8 6
28.06.2020 21:00:00 19,2 7,2 18 10 - - WSW 1011,6 5
28.06.2020 20:00:00 20,4 7,0 18 10 - - W 1011,6 6
28.06.2020 19:00:00 19,0 8,9 14 8 - - SSW 1011,5 6
28.06.2020 18:00:00 20,5 7,4 22 12 - - SW 1011,3 6
28.06.2020 17:00:00 20,8 6,3 25 14 - - W 1011,2 6
28.06.2020 16:00:00 19,4 9,5 14 8 - - SW 1011,1 7
28.06.2020 15:00:00 19,8 10,5 22 12 - - SW 1010,8 6
28.06.2020 14:00:00 18,5 11,2 18 10 - - WSW 1010,9 6
28.06.2020 13:00:00 19,1 10,2 25 14 47 25 SW 1010,7 6
28.06.2020 12:00:00 18,8 10,6 25 14 - - SW 1010,5 6
28.06.2020 11:00:00 18,1 11,5 25 14 - - SW 1010,1 6
28.06.2020 10:00:00 17,8 11,8 22 12 - - SW 1009,5 6
28.06.2020 09:00:00 17,6 13,5 18 10 - - SSW 1009,0 6
28.06.2020 08:00:00 17,8 14,5 18 10 - - SSW 1008,4 6
28.06.2020 07:00:00 17,4 15,3 14 8 - - S 1007,9 5
28.06.2020 06:00:00 17,2 15,8 14 8 - - S 1008,2 5
28.06.2020 05:00:00 16,8 15,5 11 6 - - S 1008,2 5
28.06.2020 04:00:00 16,2 15,2 7 4 - - SSE 1008,4 5
28.06.2020 03:00:00 16,0 14,6 7 4 - - S 1008,8 6
28.06.2020 02:00:00 16,9 15,8 25 14 - - WSW 1009,3 2,8
28.06.2020 01:00:00 18,2 16,7 7 4 - - SSE 1008,2 4,0
28.06.2020 00:00:00 18,7 17,0 11 6 - - S 1008,6 4,3
27.06.2020 23:00:00 18,7 17,4 11 6 - - SSE 1008,7 4,5
27.06.2020 22:00:00 18,9 17,6 11 6 - - SE 1008,3 5
27.06.2020 21:00:00 19,3 17,8 11 6 - - SE 1008,2 5
27.06.2020 20:00:00 19,7 18,1 11 6 - - ENE 1008,1 6
27.06.2020 19:00:00 19,2 17,5 4 2 - - NW 1008,1 4,5
27.06.2020 18:00:00 19,5 17,5 7 4 - - ENE 1007,6 6
27.06.2020 17:00:00 19,2 18,4 14 8 - - NNW 1008,0 4,7
27.06.2020 16:00:00 25,8 15,5 4 2 - - N 1006,9 2,3
27.06.2020 15:00:00 25,7 15,4 14 8 - - W 1007,8 5
27.06.2020 14:00:00 26,0 17,3 11 6 - - WSW 1008,0 4,8
27.06.2020 13:00:00 26,5 15,7 22 12 - - SW 1007,8 5
27.06.2020 12:00:00 26,4 14,9 14 8 - - SSW 1007,7 5
27.06.2020 11:00:00 22,9 16,1 14 8 - - SSW 1008,1 5
27.06.2020 10:00:00 21,1 15,1 7 4 - - S 1008,4 4,8
27.06.2020 09:00:00 22,1 14,4 7 4 - - N 1008,5 5
27.06.2020 08:00:00 21,6 14,5 11 6 - - SSW 1008,5 5
27.06.2020 07:00:00 19,8 14,6 7 4 - - N 1008,4 5
27.06.2020 06:00:00 18,2 14,3 7 4 - - E 1008,6 4,4
27.06.2020 05:00:00 18,2 14,1 4 2 - - SSW 1009,0 4,8
27.06.2020 04:00:00 19,0 14,7 7 4 - - ESE 1009,1 4,7
27.06.2020 03:00:00 19,6 14,6 7 4 - - E 1009,4 4,8
27.06.2020 02:00:00 20,3 14,5 7 4 - - E 1009,7 5
27.06.2020 01:00:00 21,1 14,5 7 4 - - E 1009,8 5
27.06.2020 00:00:00 22,0 14,6 7 4 - - E 1009,9 5
26.06.2020 23:00:00 21,7 14,8 7 4 - - ENE 1010,5 5
26.06.2020 22:00:00 23,2 14,7 4 2 - - ENE 1010,5 5
26.06.2020 21:00:00 27,5 12,0 7 4 - - S 1010,2 5
26.06.2020 20:00:00 28,9 11,0 11 6 - - S 1010,2 30
26.06.2020 19:00:00 29,5 10,4 14 8 - - S 1010,4 30
26.06.2020 18:00:00 29,7 9,8 18 10 - - S 1011,2 30
26.06.2020 17:00:00 29,6 9,2 18 10 - - SSE 1012,0 30
26.06.2020 16:00:00 29,4 9,5 18 10 - - S 1012,5 30
26.06.2020 15:00:00 29,1 9,6 22 12 - - SE 1012,6 30
26.06.2020 14:00:00 28,7 9,0 22 12 - - ESE 1013,2 30
26.06.2020 13:00:00 27,7 9,7 22 12 - - SE 1013,9 30
26.06.2020 12:00:00 27,0 10,1 18 10 - - SSE 1014,5 30
26.06.2020 11:00:00 26,0 11,3 18 10 - - SE 1014,7 30
26.06.2020 10:00:00 24,6 11,8 18 10 - - SE 1015,1 30
26.06.2020 09:00:00 22,8 13,1 14 8 - - ESE 1015,3 25
26.06.2020 08:00:00 21,0 13,2 14 8 - - ESE 1015,7 25

tt = temperature
td = dewpoint
ff = wind speed
fx = gusts
dd = wind direction
ppp = reduced air pressure
vv = visibility

Next stations